Flag Weather past 2 weeks in Trenton, New Jersey, U.S.A.

Now
47 °F

Overcast.


Feels Like: 46 °F
Forecast: 47 / 70 °F
Wind: 3 mph from East

Location: Mercer County Airport

Current Time: Nov 23, 2014 at 11:11:11 PM

Latest Report: Nov 23, 2014 at 9:53 PM


Visibility: 9 mi

Pressure: 30.01 "Hg

Humidity: 71%

Dew point: 38 °F

Location of TrentonLocation

Historic Weather in Trenton — Graph

°F

Trenton temperature yesterday

Maximum temperature yesterday: 43 °F (at 4:53 PM)
Minimum temperature yesterday: 20 °F (at 5:53 AM)
Average temperature yesterday: 34 °F

Past Weeks' High & Low Weather Summary

 TemperatureHumidityPressure
High68 °F (Nov 11, 1:53 PM)100% (Nov 17, 2:04 PM)30.50 "Hg (Nov 17, 2:04 PM)
Low20 °F (Nov 19, 6:53 AM)28% (Nov 23, 1:53 PM)29.52 "Hg (Nov 17, 3:53 PM)
Average39 °F59%30.08 "Hg
* Reported Nov 8 9:53 PM — Nov 23 9:53 PM, Trenton, Weather by CustomWeather, © 2014

Note: Actual official high and low records may vary slightly from our data, if they occured in-between our weather recording intervals... More about our weather records

Advertising

Trenton weather history for previous 24 hours

 ConditionsComfort  
Time TempWeatherWind HumidityBarometerVisibility
9:53 PM
Nov 23
47 °FOvercast.3 mph71%30.01 "Hg9 mi
8:53 PM46 °FClear.5 mph68%30.04 "Hg10 mi
7:53 PM48 °FClear.5 mph61%30.08 "Hg10 mi
6:53 PM49 °FClear.5 mph44%30.09 "Hg10 mi
5:53 PM49 °FClear.6 mph43%30.10 "Hg10 mi
4:53 PM50 °FClear.5 mph38%30.10 "Hg10 mi
3:53 PM53 °FSunny.7 mph32%30.11 "Hg9 mi
2:53 PM55 °FSunny.10 mph31%30.11 "Hg9 mi
1:53 PM55 °FSunny.9 mph28%30.12 "Hg8 mi
12:53 PM54 °FSunny.8 mph30%30.14 "Hg9 mi
11:53 AM52 °FSunny.6 mph34%30.14 "Hg9 mi
10:53 AM49 °FSunny.5 mph36%30.17 "Hg9 mi
9:53 AM46 °FSunny.10 mph44%30.20 "Hg9 mi
8:53 AM42 °FPassing clouds.7 mph51%30.22 "Hg9 mi
7:53 AM39 °FMore clouds than sun.3 mph60%30.21 "Hg9 mi
6:53 AM39 °FPartly sunny.No wind55%30.20 "Hg10 mi
5:53 AM40 °FOvercast.5 mph53%30.18 "Hg10 mi
4:53 AM39 °FOvercast.6 mph55%30.17 "Hg10 mi
3:53 AM39 °FPassing clouds.6 mph53%30.18 "Hg10 mi
2:53 AM40 °FClear.9 mph53%30.17 "Hg10 mi
1:53 AM41 °FPassing clouds.6 mph49%30.19 "Hg10 mi
12:53 AM41 °FOvercast.7 mph47%30.20 "Hg10 mi
11:53 PM
Nov 22
40 °FOvercast.6 mph51%30.22 "Hg10 mi
Weather by CustomWeather, © 2014

See weather overviewHow to use our weather pages